Overview Statistics Trail Chart Weather Telemetry Raw packets
 

This is the latest recevied weather packets stored in our database for station/object KB0BDN-13. If no packets are shown the sender has not sent any weather packets the latest 10 day(s).

<< 40 41 42 43 44 45 46 >>
Time Temp. Humidity Pressure Rain* Wind** Luminosity Snow
1788185793 18.89° C 100% 1002.4 hPa 0 mm - - -
1788184893 18.89° C 100% 1002.2 hPa 0 mm - - -
1788184752 18.89° C 100% 1002.3 hPa 0 mm - - -
1788184007 18.89° C 100% 1002.3 hPa 0 mm - - -
1788183852 18.89° C 100% 1002.2 hPa 0 mm - - -
1788183093 18.33° C 100% 1002.2 hPa 0 mm - - -
1788182952 18.33° C 100% 1002.1 hPa 0 mm - - -
1788182193 18.33° C 100% 1002.1 hPa 0 mm - - -
1788181293 17.78° C 100% 1001.8 hPa 0 mm - - -
1788180393 17.78° C 100% 1001.8 hPa 0.51 mm - - -
1788180252 17.78° C 100% 1001.9 hPa 0.51 mm - - -
1788179493 17.78° C 100% 1001.9 hPa 0.51 mm - - -
1788179352 17.78° C 100% 1001.7 hPa 1.78 mm - - -
1788178593 17.78° C 99% 1001.7 hPa 1.78 mm - - -
1788178452 17.78° C 99% 1001.8 hPa 1.78 mm - - -
1788177693 17.78° C 99% 1001.8 hPa 1.78 mm - - -
1788177552 17.78° C 99% 1002.4 hPa 4.32 mm - - -
1788176793 17.22° C 99% 1002.4 hPa 4.32 mm - - -
1788175893 17.22° C 100% 1002.9 hPa 3.81 mm - - -
1788174993 17.22° C 100% 1003.4 hPa 3.05 mm - - -
1788174093 17.22° C 100% 1002.8 hPa 2.54 mm - - -
1788173193 17.22° C 100% 1002.6 hPa 0.51 mm - - -
1788172293 17.22° C 99% 1002.4 hPa 0.25 mm - - -
1788171393 17.22° C 99% 1002.3 hPa 0.76 mm - - -
1788170493 17.22° C 99% 1002 hPa 0.76 mm - - -

* Rain latest hour (hover to see other rain measurements)
** Current wind speed in m/s (hover to see current wind gust speed)